Wind_Speed
10 11 11 22 23 23 22 21 21 20 20 20 20 19 18 17 16 15 14 13 12 11 10 9 10 9 9 9 10 10 8 8
9 13 16 18 25 25 24 22 22 21 20 21 21 21 19 18 17 17 16 15 14 13 11 10 11 11 10 10 11 11 9 9
11 12 14 18 23 27 27 25 24 22 22 22 23 23 23 22 21 19 19 18 16 15 14 12 12 12 11 11 11 10 11 12
15 17 14 16 20 28 30 28 28 27 25 24 25 25 24 24 23 22 22 21 20 19 17 16 14 14 13 13 12 11 12 13
17 21 18 16 16 25 31 31 29 28 27 26 26 26 26 26 25 26 26 25 24 23 21 20 17 16 15 14 13 12 14 14
16 20 20 17 15 14 28 28 29 29 28 27 27 28 28 29 28 28 28 28 27 26 24 21 19 18 17 16 15 14 13 16
11 16 20 20 17 14 18 27 28 28 27 28 29 30 31 30 31 30 30 30 29 28 27 24 22 21 20 19 18 17 15 16
17 19 18 17 19 17 19 21 23 28 29 31 32 33 33 33 33 32 31 29 26 27 24 22 24 23 21 19 19 17 17 17
17 20 21 19 18 19 20 26 23 26 28 28 26 32 35 35 34 34 34 32 27 25 25 24 21 24 22 20 18 18 18 19
14 12 10 8 8 11 17 21 29 31 29 26 30 37 36 31 32 35 35 33 32 29 29 28 26 24 26 24 23 21 22 23
12 10 9 8 8 10 14 16 22 28 29 34 32 58 40 31 32 31 35 35 35 34 33 31 30 28 27 22 24 26 26 25
14 11 10 11 13 14 15 17 21 24 24 19 23 29 35 54 41 32 36 36 39 40 37 35 34 31 27 28 23 23 23 24
8 7 7 8 10 12 15 17 18 23 28 23 19 18 27 32 34 36 36 37 41 42 42 39 37 35 33 31 27 26 24 24
3 4 7 10 12 12 13 17 20 22 24 26 29 26 22 25 26 34 38 38 38 46 45 37 38 34 38 32 21 28 30 29
7 8 9 10 13 17 16 17 18 23 25 27 27 29 30 27 25 25 33 39 45 42 48 39 40 31 36 33 13 14 26 32
7 8 9 11 14 18 21 23 25 24 26 28 28 28 30 34 34 31 27 30 36 39 41 42 45 38 44 34 37 19 13 12
10 11 12 14 15 18 21 24 27 29 30 31 30 29 30 32 33 37 37 32 29 36 37 40 40 42 38 41 39 43 29 23
14 16 18 19 20 21 23 25 28 31 33 34 35 33 32 31 33 36 38 38 35 32 34 38 41 43 41 48 41 38 36 32
18 19 21 22 24 24 25 26 28 31 32 35 37 37 36 34 35 35 38 39 40 38 36 39 40 42 40 44 40 41 46 41
23 24 24 26 27 27 27 27 29 30 32 34 36 38 38 37 37 39 40 40 41 39 39 35 42 42 43 45 46 46 50 50
Wind_Direction
238 248 242 222 219 217 210 205 204 205 203 200 198 201 206 208 209 209 211 211 210 208 205 202 198 199 201 197 195 201 207 203
258 246 244 233 225 220 215 208 206 206 205 206 202 203 209 214 215 216 215 217 220 219 218 215 208 204 206 205 207 199 216 228
273 264 253 243 230 223 219 210 207 207 209 210 209 208 210 213 217 219 221 224 225 227 226 225 222 217 214 214 215 211 207 227
279 269 260 250 238 224 220 216 210 210 212 212 216 213 215 219 220 221 223 226 230 231 231 230 228 226 222 221 220 217 214 216
283 265 254 252 252 233 221 219 217 214 216 216 220 220 218 221 221 222 223 223 229 232 230 232 233 230 229 229 224 218 219 218
289 257 253 249 253 252 231 227 223 221 222 223 221 225 224 224 225 225 226 226 229 234 237 238 238 236 233 231 227 217 217 221
250 237 250 247 240 262 246 231 233 234 231 232 230 229 231 230 229 228 229 230 232 234 238 240 238 238 237 235 230 221 220 221
205 215 228 242 246 238 251 236 231 235 234 237 240 236 235 235 234 231 231 232 233 233 234 240 241 236 233 234 224 222 225 227
192 211 218 223 227 233 237 236 235 239 235 236 241 250 248 240 239 236 234 231 231 234 233 237 238 231 228 225 223 228 240 242
158 166 178 199 210 229 240 242 242 243 241 242 235 250 251 246 243 243 242 238 235 235 233 233 234 227 224 226 224 229 239 248
186 192 206 220 238 247 250 250 246 245 254 253 244 244 249 251 251 249 246 244 242 241 236 237 237 231 225 228 228 231 237 244
203 213 235 250 260 257 250 254 251 254 261 266 268 257 237 235 252 247 253 249 248 247 243 236 240 234 227 227 233 235 236 243
204 243 268 289 293 285 271 263 258 256 257 261 267 272 245 235 241 245 252 255 254 250 248 244 241 237 223 225 230 237 240 242
72 353 333 330 323 317 307 295 287 283 279 268 262 264 269 264 253 246 248 250 248 255 252 248 242 243 231 229 220 225 237 238
33 9 349 330 317 309 301 294 284 284 283 278 274 267 262 265 262 266 257 246 248 245 253 247 248 231 250 236 221 218 227 235
26 6 347 332 322 313 315 314 308 302 294 287 280 275 269 267 266 266 264 260 251 252 254 252 242 245 245 257 242 243 204 217
23 360 346 338 329 321 315 309 305 302 298 293 288 279 274 269 266 264 262 260 261 254 253 252 252 239 227 245 248 247 242 236
3 351 345 335 331 326 318 311 304 300 296 295 291 287 281 276 273 270 266 263 261 262 255 254 254 251 248 236 234 239 240 233
357 350 342 338 333 329 323 316 310 305 301 296 293 291 288 284 280 274 271 266 259 255 258 255 251 253 245 240 241 243 243 244
351 349 341 338 332 328 324 319 314 310 306 300 297 296 294 291 286 280 274 269 263 256 247 248 252 248 245 245 245 245 244 242
Height
1489 1491 1493 1494 1496 1498 1500 1501 1504 1506 1508 1509 1511 1514 1516 1518 1519 1520 1521 1523 1525 1527 1528 1529 1530 1532 1532 1533 1534 1535 1536 1538
1488 1488 1490 1492 1493 1495 1497 1499 1501 1504 1506 1509 1510 1511 1514 1516 1517 1518 1519 1520 1522 1524 1526 1527 1528 1529 1530 1531 1532 1534 1534 1535
1487 1486 1487 1489 1490 1491 1494 1495 1498 1502 1504 1506 1507 1508 1509 1511 1513 1515 1517 1518 1519 1521 1524 1525 1526 1527 1528 1529 1530 1532 1533 1532
1483 1485 1485 1485 1486 1487 1489 1492 1494 1497 1499 1502 1505 1506 1507 1508 1510 1511 1512 1514 1516 1517 1520 1522 1522 1524 1525 1526 1527 1529 1530 1531
1481 1481 1483 1484 1484 1486 1487 1488 1491 1493 1495 1497 1500 1503 1504 1504 1506 1506 1507 1508 1511 1513 1514 1517 1519 1520 1521 1522 1523 1525 1526 1528
1479 1481 1481 1481 1482 1483 1485 1488 1490 1490 1492 1495 1495 1497 1499 1500 1500 1501 1502 1503 1504 1507 1510 1512 1515 1517 1517 1518 1520 1522 1522 1523
1475 1479 1480 1480 1478 1480 1483 1483 1487 1490 1490 1491 1491 1491 1492 1495 1495 1497 1498 1499 1499 1501 1504 1506 1509 1512 1513 1514 1515 1517 1518 1520
1472 1475 1476 1478 1477 1477 1479 1479 1480 1484 1483 1483 1484 1484 1484 1486 1489 1491 1493 1494 1496 1497 1499 1501 1503 1506 1508 1508 1511 1513 1514 1516
1469 1471 1473 1474 1475 1474 1474 1477 1477 1480 1478 1479 1481 1487 1488 1484 1483 1486 1488 1490 1491 1493 1494 1497 1498 1501 1502 1504 1506 1509 1511 1512
1468 1470 1471 1473 1472 1472 1472 1473 1474 1474 1475 1479 1476 1481 1485 1484 1484 1483 1484 1486 1488 1489 1489 1491 1493 1496 1497 1499 1501 1504 1506 1509
1466 1469 1470 1470 1470 1469 1470 1470 1470 1470 1469 1474 1475 1470 1478 1477 1480 1481 1483 1484 1484 1484 1486 1487 1487 1490 1492 1493 1496 1499 1501 1505
1462 1464 1466 1466 1466 1467 1466 1466 1466 1464 1464 1466 1465 1463 1457 1470 1464 1473 1479 1481 1481 1481 1480 1482 1483 1483 1487 1490 1492 1495 1496 1498
1457 1459 1460 1461 1461 1460 1462 1461 1461 1461 1460 1461 1464 1463 1464 1462 1463 1468 1467 1472 1476 1477 1476 1476 1479 1479 1482 1484 1484 1488 1490 1492
1457 1457 1457 1457 1457 1458 1458 1457 1456 1455 1453 1455 1456 1457 1458 1456 1457 1459 1463 1465 1465 1469 1472 1472 1472 1475 1480 1481 1481 1479 1481 1484
1455 1456 1456 1457 1457 1457 1456 1457 1455 1452 1451 1448 1447 1448 1449 1451 1451 1453 1453 1454 1450 1454 1460 1464 1461 1467 1476 1476 1475 1470 1470 1475
1454 1455 1456 1456 1455 1453 1451 1449 1449 1448 1446 1445 1444 1442 1441 1443 1444 1446 1446 1446 1448 1449 1451 1454 1457 1458 1464 1468 1470 1465 1463 1468
1454 1455 1454 1454 1452 1450 1447 1445 1444 1441 1440 1437 1437 1438 1437 1437 1438 1439 1440 1440 1439 1440 1442 1444 1447 1450 1452 1461 1458 1465 1459 1462
1453 1452 1449 1450 1447 1444 1442 1440 1438 1435 1433 1429 1428 1427 1426 1426 1426 1425 1425 1427 1429 1431 1432 1433 1436 1439 1443 1450 1450 1455 1455 1455
1452 1449 1446 1444 1441 1439 1437 1435 1431 1428 1425 1422 1418 1416 1415 1415 1414 1414 1413 1415 1418 1421 1421 1422 1425 1428 1433 1436 1439 1439 1446 1450
1449 1442 1442 1437 1436 1434 1432 1429 1425 1421 1418 1415 1411 1407 1405 1405 1404 1402 1402 1404 1405 1409 1410 1412 1414 1418 1421 1425 1428 1432 1437 1442